Location: Unspecified
(35.7250°N, 0.0000°E)
Time: 12:22:43
(UTC+00:00)

Vanguard 1 Rocket - Pass Details

Date: 23 June 2019
Orbit: 651 x 4225 km, 34.3° (Epoch: 19 July)

Event Time Altitude Azimuth Distance (km) Brightness Sun altitude
Rises 18:42:30 0° 262° (W) 7,289 13.1 5.9°
Reaches altitude 10° 18:48:10 10° 263° (W) 5,730 12.6 4.8°
Maximum altitude 19:03:20 83° 178° (S) 1,689 8.8 2.1°
Drops below altitude 10° 19:10:47 10° 91° (E) 2,993 9.5 0.7°
Sets 19:12:51 0° 90° (E) 3,705 10.0 0.4°
